Wrangell, AK

10:29 PM AKDT on March 28, 2017 (GMT -0800)
Wrangell

Weather History for PAWG - February, 2012

Change the Weather History Date:

Monday, February 27, 2012

  Actual Average Record
Temperature  
Mean Temperature 34 °F -  
Max Temperature 35 °F 41 °F 65 °F (1992)
Min Temperature 32 °F 28 °F 6 °F (1972)
Degree Days  
Heating Degree Days 32    
Moisture  
Dew Point 27 °F    
Average Humidity 77    
Maximum Humidity 87    
Minimum Humidity 70    
Precipitation  
Precipitation 0.00 in - - ()
Sea Level Pressure  
Sea Level Pressure 29.75 in    
Wind  
Wind Speed 18 mph (SE)    
Max Wind Speed 25 mph    
Max Gust Speed 33 mph    
Visibility 6 miles    
Events      
Averages and records for this station are not official NWS values.
T = Trace of Precipitation, MM = Missing Value Source: NWS Daily Summary

Daily Weather History Graph

Daily Weather History Graph

Search for Another Location

Airport or City:

Trip Planner

Search our weather history database for the weather conditions in past years. The results will help you decide how hot, cold, wet, or windy it might be!

Date:

Astronomy

Feb. 27, 2012 Rise Set
Actual Time 6:47 AM AKST 5:17 PM AKST
Civil Twilight 6:09 AM AKST 5:56 PM AKST
Nautical Twilight 5:26 AM AKST 6:39 PM AKST
Astronomical Twilight 4:42 AM AKST 7:23 PM AKST
Moon 8:05 AM AKST (2/27) No Moon Set
Length of Visible Light 11h 46m
Length of Day
10h 30m
Waxing Crescent, 30% of the Moon is Illuminated
Feb 27
Waxing Crescent
Feb 29
First Quarter
Mar 8
Full
Mar 14
Last Quarter
Mar 22
New

Hourly Weather History & Observations

Time (AKST) Temp. Windchill Dew Point Humidity Pressure Visibility Wind Dir Wind Speed Gust Speed Precip Events Conditions
12:16 AM 32.0 °F 21.6 °F 24.8 °F 75% 30.13 in 10.0 mi East 15.0 mph 23.0 mph N/A   Overcast
12:36 AM 32.0 °F 21.6 °F 24.8 °F 75% 30.12 in 10.0 mi East 15.0 mph 20.7 mph N/A   Overcast
12:56 AM 32.0 °F 23.6 °F 24.8 °F 75% 30.11 in 8.0 mi ESE 10.4 mph 17.3 mph N/A   Overcast
1:16 AM 32.0 °F 23.0 °F 24.8 °F 75% 30.10 in 5.0 mi SE 11.5 mph - N/A   Overcast
1:36 AM 32.0 °F 21.6 °F 24.8 °F 75% 30.08 in 9.0 mi ESE 15.0 mph 19.6 mph N/A   Overcast
1:56 AM 32.0 °F 20.5 °F 24.8 °F 75% 30.06 in 10.0 mi SE 18.4 mph 21.9 mph N/A   Overcast
2:16 AM 33.8 °F 22.2 °F 24.8 °F 70% 30.05 in 10.0 mi ESE 20.7 mph 26.5 mph N/A   Overcast
2:36 AM 33.8 °F 22.8 °F 24.8 °F 70% 30.03 in 10.0 mi ESE 18.4 mph 25.3 mph N/A   Overcast
2:56 AM 33.8 °F 22.8 °F 24.8 °F 70% 30.02 in 7.0 mi SE 18.4 mph 24.2 mph N/A   Overcast
3:16 AM 33.8 °F 22.5 °F 24.8 °F 70% 30.00 in 9.0 mi ESE 19.6 mph 25.3 mph N/A   Overcast
3:36 AM 33.8 °F 22.8 °F 24.8 °F 70% 29.99 in 10.0 mi ESE 18.4 mph 24.2 mph N/A   Overcast
3:56 AM 33.8 °F 23.2 °F 24.8 °F 70% 29.98 in 10.0 mi ESE 17.3 mph 23.0 mph N/A   Overcast
4:16 AM 33.8 °F 23.5 °F 24.8 °F 70% 29.97 in 8.0 mi ESE 16.1 mph 23.0 mph N/A   Overcast
4:36 AM 33.8 °F 22.5 °F 24.8 °F 70% 29.94 in 10.0 mi ESE 19.6 mph 24.2 mph N/A   Overcast
4:56 AM 33.8 °F 22.5 °F 24.8 °F 70% 29.92 in 10.0 mi SE 19.6 mph 25.3 mph N/A   Overcast
5:16 AM 33.8 °F 22.8 °F 24.8 °F 70% 29.91 in 10.0 mi SE 18.4 mph 26.5 mph N/A   Overcast
5:36 AM 33.8 °F 22.2 °F 24.8 °F 70% 29.90 in 5.0 mi SE 20.7 mph 26.5 mph N/A   Overcast
5:56 AM 32.0 °F 19.8 °F 24.8 °F 75% 29.89 in 4.0 mi SE 20.7 mph 25.3 mph N/A   Overcast
6:16 AM 32.0 °F 20.5 °F 24.8 °F 75% 29.87 in 4.0 mi SE 18.4 mph 27.6 mph N/A   Overcast
6:36 AM 32.0 °F 19.8 °F 24.8 °F 75% 29.86 in 4.0 mi SE 20.7 mph 28.8 mph N/A   Overcast
6:56 AM 32.0 °F 19.2 °F 24.8 °F 75% 29.83 in 3.0 mi SE 23.0 mph 28.8 mph N/A   Overcast
7:16 AM 32.0 °F 20.1 °F 24.8 °F 75% 29.83 in 3.0 mi SE 19.6 mph 28.8 mph N/A   Overcast
7:36 AM 32.0 °F 18.6 °F 26.6 °F 80% 29.81 in 3.0 mi SE 25.3 mph 28.8 mph N/A   Overcast
7:56 AM 32.0 °F 19.8 °F 26.6 °F 80% 29.81 in 3.0 mi SE 20.7 mph 28.8 mph N/A   Overcast
8:16 AM 32.0 °F 19.8 °F 26.6 °F 80% 29.80 in 3.0 mi SE 20.7 mph 26.5 mph N/A   Overcast
8:36 AM 33.8 °F 21.9 °F 26.6 °F 75% 29.78 in 3.0 mi ESE 21.9 mph 27.6 mph N/A   Overcast
8:56 AM 33.8 °F 22.2 °F 26.6 °F 75% 29.78 in 4.0 mi SE 20.7 mph 27.6 mph N/A   Overcast
9:16 AM 32.0 °F 19.5 °F 26.6 °F 80% 29.77 in 4.0 mi SE 21.9 mph 27.6 mph N/A   Overcast
9:36 AM 32.0 °F 19.5 °F 26.6 °F 80% 29.76 in 4.0 mi SE 21.9 mph 27.6 mph N/A   Overcast
9:56 AM 33.8 °F 22.2 °F 26.6 °F 75% 29.75 in 4.0 mi ESE 20.7 mph 26.5 mph N/A   Overcast
10:16 AM 33.8 °F 22.5 °F 26.6 °F 75% 29.73 in 4.0 mi SE 19.6 mph 28.8 mph N/A   Overcast
10:36 AM 33.8 °F 22.8 °F 26.6 °F 75% 29.72 in 10.0 mi SE 18.4 mph 27.6 mph N/A   Overcast
10:56 AM 33.8 °F 22.2 °F 26.6 °F 75% 29.70 in 10.0 mi ESE 20.7 mph - N/A   Overcast
11:16 AM 33.8 °F 21.6 °F 28.4 °F 81% 29.68 in 10.0 mi ESE 23.0 mph 28.8 mph N/A   Overcast
11:36 AM 33.8 °F 21.6 °F 26.6 °F 75% 29.66 in 10.0 mi ESE 23.0 mph 29.9 mph N/A   Overcast
11:56 AM 33.8 °F 21.9 °F 26.6 °F 75% 29.65 in 10.0 mi ESE 21.9 mph 33.4 mph N/A   Overcast
12:16 PM 33.8 °F 22.5 °F 26.6 °F 75% 29.64 in 10.0 mi ESE 19.6 mph 28.8 mph N/A   Overcast
12:36 PM 33.8 °F 22.2 °F 26.6 °F 75% 29.61 in 10.0 mi ESE 20.7 mph 29.9 mph N/A   Overcast
12:56 PM 33.8 °F 22.5 °F 26.6 °F 75% 29.60 in 4.0 mi ESE 19.6 mph 26.5 mph N/A   Overcast
1:16 PM 33.8 °F 21.3 °F 28.4 °F 81% 29.58 in 4.0 mi SE 24.2 mph 29.9 mph N/A   Overcast
1:36 PM 33.8 °F 21.9 °F 28.4 °F 81% 29.58 in 4.0 mi ESE 21.9 mph 27.6 mph N/A   Overcast
1:56 PM 33.8 °F 23.2 °F 28.4 °F 81% 29.58 in 4.0 mi SE 17.3 mph 28.8 mph N/A   Overcast
2:16 PM 33.8 °F 22.2 °F 30.2 °F 87% 29.57 in 4.0 mi ESE 20.7 mph 25.3 mph N/A   Overcast
2:36 PM 33.8 °F 21.3 °F 30.2 °F 87% 29.55 in 4.0 mi ESE 24.2 mph 28.8 mph N/A   Overcast
2:56 PM 33.8 °F 21.9 °F 28.4 °F 81% 29.54 in 4.0 mi ESE 21.9 mph 26.5 mph N/A   Overcast
3:56 PM 33.8 °F 22.8 °F 28.4 °F 81% 29.53 in 4.0 mi SE 18.4 mph 25.3 mph N/A   Overcast
4:16 PM 33.8 °F 22.5 °F 28.4 °F 81% 29.51 in 4.0 mi SE 19.6 mph 25.3 mph N/A   Overcast
4:36 PM 33.8 °F 22.5 °F 28.4 °F 81% 29.50 in 4.0 mi SE 19.6 mph - N/A   Overcast
4:56 PM 33.8 °F 23.2 °F 28.4 °F 81% 29.50 in 4.0 mi ESE 17.3 mph 25.3 mph N/A   Overcast
5:16 PM 33.8 °F 23.9 °F 28.4 °F 81% 29.50 in 4.0 mi ESE 15.0 mph 21.9 mph N/A   Overcast
5:36 PM 33.8 °F 23.9 °F 30.2 °F 87% 29.50 in 4.0 mi ESE 15.0 mph 19.6 mph N/A   Overcast
5:56 PM 33.8 °F 23.9 °F 30.2 °F 87% 29.50 in 3.0 mi ESE 15.0 mph - N/A   Overcast
6:16 PM 33.8 °F 23.9 °F 30.2 °F 87% 29.50 in 3.0 mi ESE 15.0 mph - N/A   Overcast
6:36 PM 33.8 °F 24.3 °F 30.2 °F 87% 29.49 in 3.0 mi SE 13.8 mph 21.9 mph N/A   Overcast
6:56 PM 35.6 °F 27.5 °F 30.2 °F 81% 29.50 in 3.0 mi SE 11.5 mph - N/A   Overcast
7:16 PM 35.6 °F 28.0 °F 28.4 °F 75% 29.50 in 3.0 mi ESE 10.4 mph - N/A   Overcast
7:36 PM 35.6 °F 27.1 °F 28.4 °F 75% 29.50 in 3.0 mi SE 12.7 mph - N/A   Overcast
7:56 PM 35.6 °F 26.2 °F 28.4 °F 75% 29.49 in 10.0 mi SE 15.0 mph 19.6 mph N/A   Overcast
8:16 PM 35.6 °F 25.9 °F 28.4 °F 75% 29.49 in 10.0 mi SE 16.1 mph 20.7 mph N/A   Overcast
8:36 PM 35.6 °F 26.2 °F 28.4 °F 75% 29.49 in 10.0 mi ESE 15.0 mph - N/A   Overcast
8:56 PM 35.6 °F 32.8 °F 28.4 °F 75% 29.50 in 10.0 mi SSE 3.5 mph 19.6 mph N/A   Overcast
9:16 PM 35.6 °F 28.0 °F 28.4 °F 75% 29.50 in 10.0 mi SSE 10.4 mph - N/A   Overcast
9:36 PM 35.6 °F 27.5 °F 28.4 °F 75% 29.50 in 10.0 mi ESE 11.5 mph - N/A   Overcast
9:56 PM 35.6 °F 26.2 °F 28.4 °F 75% 29.49 in 10.0 mi SE 15.0 mph - N/A   Overcast
10:16 PM 35.6 °F 26.2 °F 28.4 °F 75% 29.49 in 10.0 mi SE 15.0 mph 18.4 mph N/A   Overcast
10:36 PM 35.6 °F 27.1 °F 28.4 °F 75% 29.49 in 10.0 mi SE 12.7 mph - N/A   Overcast
10:56 PM 35.6 °F 28.0 °F 28.4 °F 75% 29.49 in - SE 10.4 mph - N/A   Overcast
11:16 PM 35.6 °F 27.5 °F 28.4 °F 75% 29.49 in 10.0 mi East 11.5 mph - N/A   Overcast
11:36 PM 35.6 °F 28.6 °F 30.2 °F 81% 29.49 in 10.0 mi East 9.2 mph 17.3 mph N/A   Overcast
11:56 PM 35.6 °F 25.9 °F 28.4 °F 75% 29.48 in 10.0 mi SE 16.1 mph 19.6 mph N/A   Overcast